Tracking 25378 objects as of 22-Jan-2022
HD Live streaming from Space Station
objects crossing your sky now

SL-24 R/B

Track SL-24 R/B now!
10-day predictions


NORAD ID: 31699
Int'l Code: 2007-026B
Perigee: 512.7 km
Apogee: 1,008.3 km
Inclination: 97.5 °
Period: 99.9 minutes
Semi major axis: 7131 km
RCS: 6.666 m2 (large)
Launch date: June 15, 2007
Source: Commonwealth of Independent States (former USSR) (CIS)
Launch site: TYURATAM MISSILE AND SPACE COMPLEX (TTMTR)

Note: This is a ROCKET BODY
aabbcc
Your satellite tracking list
Your tracking list is empty




NASA's NSSDC Master Catalog

Two Line Element Set (TLE):
1 31699U 07026B   22021.81483110  .00000204  00000-0  39081-4 0  9997
2 31699  97.4758 163.1073 0347472 303.9772 177.3602 14.41556731767686
Source of the keplerian elements: AFSPC